sat.trackr.live / text

‹ back to catalog

STARLINK-30547

NORAD 58044 · 2023-156S

PAYLOAD ACTIVE UNKNOWN

§ Identity

Operator
Country
US
Launch date
2023-10-09
Launch site
AFWTR
Launch vehicle
Mass (kg)
RCS (m²)

Purposes: comms

External: N2YO · Heavens-Above · Gunter

§ Orbital elements

Epoch: 2026-09-20T21:49:33.823200Z

Period
93.85 min
Inclination
53.1633°
Eccentricity
0.0001425
Mean motion
15.34390694 rev/d
Perigee alt
461.8 km
Apogee alt
463.7 km
Semi-major
6,840.9 km
B*
1.6529e-5
RAAN
337.6928°
Arg perigee
91.4652°
Mean anomaly
268.6514°
Rev number
16,497

§ Raw data

STARLINK-305471 58044U 23156S   26263.90941925  .00000182  00000+0  16529-4 0  99932 58044  53.1633 337.6928 0001425  91.4652 268.6514 15.34390694164974

JSON: /api/v1/satellites/58044 · /tle

For live sub-satellite position, see the globe view (requires WebGL).

§ Visibility from observer

Set your observer location to see the next 7 days of passes ≥ 10°. The values pass through the URL so the page stays shareable.

No JS? Fill the form by hand. The geolocation button needs JavaScript.